Home > Weather > Maputo > Past weeks

Flag for Mozambique Weather for the Past 2 Weeks in Maputo, Mozambique

Now
79 °F

Passing clouds.


Feels Like: 81 °F
Forecast: 72 / 89 °F
Wind: 6 mph from East

Location: Maputo / Mavalane

Current Time: Feb 13, 2016 at 12:59:05 AM

Latest Report: Feb 13, 2016 at 12:00 AM


Visibility: N/A

Pressure: 29.89 "Hg

Humidity: 70%

Dew point: 68 °F

Location of MaputoLocation

Historic Weather in Maputo — Graph

°F

Maputo Temperature Yesterday

Maximum temperature yesterday: 86 °F (at 3:00 PM)
Minimum temperature yesterday: 77 °F (at 3:00 AM)
Average temperature yesterday: 80 °F

High & Low Weather Summary for the Past Weeks

 TemperatureHumidityPressure
High99 °F (Jan 31, 7:00 PM)94% (Feb 7, 6:00 PM)30.12 "Hg (Feb 7, 6:00 PM)
Low68 °F (Feb 7, 6:00 PM)36% (Feb 2, 11:00 AM)29.68 "Hg (Feb 3, 6:00 PM)
Average81 °F64%29.95 "Hg
* Reported Jan 28 11:00 PM — Feb 12 11:00 PM, Maputo, Weather by CustomWeather, © 2016

Note: Actual official high and low records may vary slightly from our data, if they occured in-between our weather recording intervals... More about our weather records

Advertising

Maputo Weather History for the Previous 24 Hours

 ConditionsComfort  
Time TempWeatherWind HumidityBarometerVisibility
11:00 PM
Fri, Feb 12
79 °FPassing clouds.7 mph70%29.89 "HgN/A
10:00 PM79 °FPassing clouds.6 mph70%29.89 "HgN/A
9:00 PM79 °FPassing clouds.9 mph65%29.89 "HgN/A
8:00 PM79 °FPassing clouds.10 mph65%29.86 "HgN/A
6:00 PM81 °FPassing clouds.13 mph62%29.83 "HgN/A
5:00 PM84 °FScattered clouds.14 mph58%29.83 "HgN/A
4:00 PM86 °FScattered clouds.10 mph55%29.83 "HgN/A
3:00 PM86 °FPartly sunny.8 mph55%29.83 "HgN/A
2:00 PM82 °FPartly sunny.8 mph62%29.86 "HgN/A
1:00 PM82 °FPartly sunny.8 mph58%29.86 "HgN/A
12:00 PM82 °FPartly sunny.8 mph58%29.89 "HgN/A
11:00 AM82 °FPartly sunny.5 mph62%29.92 "HgN/A
10:00 AM81 °FPartly sunny.3 mph66%29.92 "HgN/A
9:00 AM79 °FPartly sunny.3 mph61%29.95 "HgN/A
8:00 AM79 °FPartly sunny.3 mph65%29.92 "HgN/A
7:00 AM77 °FPartly sunny.5 mph74%29.92 "HgN/A
6:00 AM77 °FPartly sunny.6 mph74%29.89 "HgN/A
5:00 AM77 °FPartly sunny.6 mph74%29.89 "HgN/A
3:00 AM77 °FPassing clouds.6 mph74%29.89 "HgN/A
1:00 AM79 °FPassing clouds.6 mph70%29.89 "HgN/A
12:00 AM79 °FPassing clouds.6 mph70%29.89 "HgN/A
Weather by CustomWeather, © 2016

See weather overviewHow to use our weather pages